Weather History for Andover, NJ

Change the Weather History Date:

Wednesday, February 13, 2013

  Actual Average (KFWN) Record (KFWN)
Temperature  
Mean Temperature 32 °F -  
Max Temperature 42 °F 35 °F 60 °F (1951)
Min Temperature 21 °F 11 °F -16 °F (1967)
Degree Days  
Heating Degree Days 34    
Moisture  
Dew Point 24 °F    
Average Humidity 75    
Maximum Humidity 96    
Minimum Humidity 47    
Precipitation  
Precipitation 0.02 in - - ()
Sea Level Pressure  
Sea Level Pressure 29.84 in    
Wind  
Wind Speed 0 mph (North)    
Max Wind Speed 0 mph    
Max Gust Speed -    
Averages and records for this station are not official NWS values.
T = Trace of Precipitation, MM = Missing Value Source: NWS Daily Summary

Daily Weather History Graph

Daily Weather History Graph

Search for Another Location

Airport:

Trip Planner

Search our weather history database for the weather conditions in past years. The results will help you decide how hot, cold, wet, or windy it might be!

Date:

Astronomy

Feb. 13, 2013 Rise Set
Actual Time 6:55 AM EST 5:31 PM EST
Civil Twilight 6:27 AM EST 5:59 PM EST
Nautical Twilight 5:55 AM EST 6:31 PM EST
Astronomical Twilight 5:23 AM EST 7:03 PM EST
Moon 8:21 AM EST (2/13) 9:34 PM EST (2/13)
Length of Visible Light 11h 32m
Length of Day
10h 35m
Waxing Crescent, 13% of the Moon is Illuminated
Feb 13
Waxing Crescent
Feb 17
First Quarter
Feb 25
Full
Mar 4
Last Quarter
Mar 11
New

Hourly Weather History & Observations

Time (EST) Temp. Dew Point Humidity Pressure Visibility Wind Dir Wind Speed Gust Speed Precip Events Conditions
12:54 AM 26.1 °F 23.0 °F 88% 29.94 in - Calm Calm - N/A   Unknown
1:54 AM 26.1 °F 21.9 °F 84% 29.98 in - Calm Calm - N/A   Unknown
2:54 AM 24.1 °F 19.9 °F 84% 29.96 in - Calm Calm - N/A   Unknown
3:54 AM 23.0 °F 21.0 °F 92% 29.95 in - Calm Calm - N/A   Unknown
4:54 AM 21.9 °F 19.0 °F 89% 29.92 in - Calm Calm - N/A   Unknown
5:54 AM 23.0 °F 19.0 °F 85% 29.92 in - Calm Calm - N/A   Unknown
6:54 AM 21.0 °F 18.0 °F 88% 29.94 in - Calm Calm - N/A   Unknown
7:54 AM 23.0 °F 19.9 °F 88% 29.93 in - Calm Calm - N/A   Unknown
8:54 AM 30.0 °F 26.1 °F 85% 29.91 in - Calm Calm - N/A   Unknown
9:54 AM 35.1 °F 21.9 °F 59% 29.88 in - Calm Calm - N/A   Unknown
10:54 AM 37.0 °F 21.0 °F 52% 29.89 in - Calm Calm - N/A   Unknown
11:54 AM 39.0 °F 21.9 °F 50% 29.87 in - Calm Calm - N/A   Unknown
12:54 PM 41.0 °F 21.9 °F 47% 29.82 in - Calm Calm - N/A   Unknown
1:54 PM 42.1 °F 23.0 °F 47% 29.79 in - Calm Calm - N/A   Unknown
2:54 PM 41.0 °F 23.0 °F 49% 29.77 in - Calm Calm - N/A   Unknown
3:54 PM 41.0 °F 24.1 °F 51% 29.75 in - Calm Calm - N/A   Unknown
4:54 PM 37.9 °F 27.0 °F 65% 29.73 in - Calm Calm - N/A   Unknown
5:54 PM 36.0 °F 28.0 °F 73% 29.72 in - Calm Calm - N/A   Unknown
6:54 PM 35.1 °F 28.0 °F 76% 29.72 in - Calm Calm - N/A   Unknown
7:54 PM 36.0 °F 28.9 °F 76% 29.73 in - Calm Calm - N/A   Unknown
8:54 PM 34.0 °F 30.9 °F 89% 29.74 in - Calm Calm - N/A   Unknown
9:54 PM 33.1 °F 32.0 °F 96% 29.74 in - Calm Calm - 0.01 in   Unknown
10:54 PM 33.1 °F 32.0 °F 96% 29.72 in - Calm Calm - 0.01 in   Unknown
11:54 PM 33.1 °F 30.9 °F 92% 29.73 in - Calm Calm - N/A   Unknown